Regional Weather Roundup
Issued by NWS Portland, ME

Home | Current Version | Previous Version | Text Only | Print | Product List | Glossary On
Versions: 1 2 3 4 5 6 7 8 9 10 11 12 13 14 15 16 17 18 19 20 21 22 23 24 25 26 27 28 29 30 31 32 33 34 35 36 37 38 39 40 41 42 43 44 45 46 47 48 49 50
911
ASUS41 KGYX 231210
RWRGYX
WEATHER ROUNDUP FOR MAINE AND NEW HAMPSHIRE
NATIONAL WEATHER SERVICE GRAY ME
800 AM EDT MON APR 23 2018

MEZ002-005-006-010-012-015-018-020-021-024-026-027-029-231300-
MAINE

CITY           SKY/WX    TMP DP  RH WIND       PRES   REMARKS
PORTLAND       FAIR      43  26  51 VRB6      30.48R
6HR MIN TEMP:  32; 6HR MAX TEMP:  43;

SANFORD        FAIR      43  29  57 CALM      30.49R
BAR HARBOR     FAIR      41  28  60 CALM      30.45R
WISCASSET      FAIR      42  27  55 CALM      30.48R
6HR MIN TEMP:  25; 6HR MAX TEMP:  42;

ROCKLAND       FAIR      44  24  45 W6        30.46R
FRYEBURG       FAIR      39  29  67 CALM      30.48R
6HR MIN TEMP:  22; 6HR MAX TEMP:  39;

LEWISTONAUBURN FAIR      39  25  57 CALM      30.47R
AUGUSTA        FAIR      43  21  41 NW3       30.46R
6HR MIN TEMP:  32; 6HR MAX TEMP:  43;

WATERVILLE     FAIR      41  22  46 CALM      30.44R
BANGOR         FAIR      41  21  44 W5        30.45R
6HR MIN TEMP:  24; 6HR MAX TEMP:  41;

GREENVILLE       N/A     40  16  37 NW3       30.40R
6HR MIN TEMP:  30; 6HR MAX TEMP:  40;

MILLINOCKET    FAIR      41  20  43 NW5       30.44R
6HR MIN TEMP:  24; 6HR MAX TEMP:  41;

HOULTON        NOT AVBL
PRESQUE ISLE   FAIR      34  22  61 SE3       30.42R
6HR MIN TEMP:  18; 6HR MAX TEMP:  34;

FRENCHVILLE    FAIR      39  17  41 NW6       30.39R
6HR MIN TEMP:  32; 6HR MAX TEMP:  39;

CARIBOU        FAIR      36  17  46 CALM      30.40R
6HR MIN TEMP:  24; 6HR MAX TEMP:  36;

$$

NHZ002-005-008-009-011-012-014-231300-
NEW HAMPSHIRE

CITY           SKY/WX    TMP DP  RH WIND       PRES   REMARKS
PORTSMOUTH     SUNNY     43  26  51 W5        30.48R
ROCHESTER      FAIR      42  26  53 NW7       30.48R
6HR MIN TEMP:  30; 6HR MAX TEMP:  42;

NASHUA         FAIR      38  28  67 CALM      30.50R
MANCHESTER     FAIR      41  25  53 N3        30.48R
6HR MIN TEMP:  34; 6HR MAX TEMP:  41;

CONCORD        FAIR      38  26  62 CALM      30.50R
6HR MIN TEMP:  25; 6HR MAX TEMP:  38;

LACONIA        FAIR      37  26  64 VRB5      30.50R
PLYMOUTH       FAIR      32  28  83 MISG      30.51R
BERLIN         FAIR      31  26  82 CALM      30.47R
6HR MIN TEMP:  19; 6HR MAX TEMP:  31;

WHITEFIELD     FAIR      33  28  81 CALM      30.48R
6HR MIN TEMP:  21; 6HR MAX TEMP:  33;

JAFFREY        FAIR      36  28  73 CALM      30.48R
6HR MIN TEMP:  25; 6HR MAX TEMP:  36;

KEENE          FAIR      37  27  67 CALM      30.52R
LEBANON        FAIR      34  24  67 CALM      30.51R
6HR MIN TEMP:  24; 6HR MAX TEMP:  34;

MT WASHINGTON  MOSUNNY   27  -4  26 NW14        N/A  WCI  15
6HR MIN TEMP:  19; 6HR MAX TEMP:  28;

$$

VTZ005-007-008-231300-
VERMONT

CITY           SKY/WX    TMP DP  RH WIND       PRES   REMARKS
ST JOHNSBURY     N/A     30  25  81 MISG      30.50R
MONTPELIER     FAIR      31  26  82 CALM      30.52R
BURLINGTON     FAIR      39  26  59 CALM      30.50R
$$

MAZ007-012-024-CTZ003-RIZ002-NYZ038-NYZ072-231300-
SOUTHERN NEW ENGLAND AND NY

CITY           SKY/WX    TMP DP  RH WIND       PRES   REMARKS
BOSTON         FAIR      49  21  33 NW5       30.49R
WORCESTER      FAIR      48  19  31 N5        30.47R
NANTUCKET      FAIR      48  38  68 N14       30.46R
PROVIDENCE     FAIR      50  26  39 N5        30.50R
HARTFORD       FAIR      43  25  49 NE6       30.50R
ALBANY         FAIR      41  26  55 CALM      30.51R
NEW YORK CITY  FAIR      49  30  48 NE8       30.47R
$$

ANZ081-ANZ082-ANZ150-NHZ014-MEZ023>029-231300-
COASTAL MARINE OBSERVATIONS

STATION/POSITION TIME  TEMP    WIND        PRES    WAVE
                       AIR SEA DIR/SP/G            HT/PER
                 (UTC) (F)     (DEG/KT/KT) (MB)    (FT/S)
MOUNT DESERT ROC 1200   41     280/  6/  6 1031.2R
JEFFREYS LEDGE   1136      42                N/A     1/14
CASHES LEDGE BUO 1150   45 41              1031.5R   1/15
$$

.............KEY..............
   WCI - WIND CHILL
   TC  - TEMPERATURE IN CELSIUS
   VSB - VISIBILITY IN MILES
   HX  - HEAT INDEX
   FAIR- INDICATES FEW OR NO CLOUDS BELOW 12,000 FT, WITH NO
         SIGNIFICANT WEATHER AND/OR OBSTRUCTIONS TO VISIBILITY.






USA.gov is the U.S. government's official web portal to all federal, state and local government web resources and services.